SB KEPS @ AMSAT $ORB11355.N 2Line Orbital Elements 11355.AMSAT
HR AMSAT ORBITAL ELEMENTS FOR AMATEUR SATELLITES IN NASA FORMAT FROM WA5QGD FORT WORTH,TX December 21, 2011 Send Subscribe/unsubscribe to KEPS at http://www.amsat.org/mailman/listinfo/keps BID: ORB11355.N
DECODE 2-LINE ELSETS WITH THE FOLLOWING KEY: 1 AAAAAU 00 0 0 BBBBB.BBBBBBBB .CCCCCCCC 00000-0 00000-0 0 DDDZ 2 AAAAA EEE.EEEE FFF.FFFF GGGGGGG HHH.HHHH III.IIII JJ.JJJJJJJJKKKKKZ KEY: A-CATALOGNUM B-EPOCHTIME C-DECAY D-ELSETNUM E-INCLINATION F-RAAN G-ECCENTRICITY H-ARGPERIGEE I-MNANOM J-MNMOTION K-ORBITNUM Z-CHECKSUM
TO ALL RADIO AMATEURS BT
AO-07 1 07530U 74089B 11354.90186500 -.00000027 00000-0 10000-3 0 02601 2 07530 101.3966 354.0932 0011901 274.7855 085.1857 12.53586444697580 FO-29 1 24278U 96046B 11355.89180287 .00000037 00000-0 70722-4 0 7323 2 24278 098.5737 114.9943 0351128 130.9122 232.2989 13.52974535757843 SO-33 1 25509U 98061B 11355.80884186 .00000818 00000-0 15258-3 0 1266 2 25509 031.4322 263.0352 0352724 082.6894 281.3679 14.28624490687129 RS-22 1 27939U 03042A 11355.60387475 .00000663 00000-0 13531-3 0 9197 2 27939 097.8237 200.4357 0014535 110.4121 249.8645 14.63834626439756 VO-52 1 28650U 05017B 11355.62906163 .00001455 00000-0 18631-3 0 9797 2 28650 097.6204 030.1671 0025461 267.6868 092.1409 14.82550339358517 SO-67 1 35870U 09049F 11355.74528351 .00004520 00000-0 19895-3 0 5155 2 35870 097.2579 032.7214 0003785 081.4998 028.2640 15.22332443125453 HO-68 1 36122U 09072B 11355.67384874 -.00000044 00000-0 00000 0 0 320 2 36122 100.3906 053.4318 0007723 155.3903 204.7591 13.16291698 96902 UO-11 1 14781U 84021B 11354.93282826 .00000679 00000-0 96215-4 0 07526 2 14781 097.9810 050.8086 0007907 253.9325 106.1020 14.80240261493415 AO-16 1 20439U 90005D 11354.86792138 .00000216 00000-0 96335-4 0 3533 2 20439 098.4083 298.4709 0010850 335.6308 024.4357 14.31997664144333 LO-19 1 20442U 90005G 11354.91834863 .00000256 00000-0 11044-3 0 02913 2 20442 098.3741 302.1714 0011398 326.8594 033.1871 14.32219467144521 AO-27 1 22825U 93061C 11355.82244743 .00000074 00000-0 45804-4 0 9892 2 22825 098.5530 296.6094 0009324 083.6194 276.6050 14.29412756950995 IO-26 1 22826U 93061D 11354.94736542 .00000195 00000-0 92907-4 0 07481 2 22826 098.5494 296.1697 0009858 080.8196 279.4098 14.29681665950992 GO-32 1 25397U 98043D 11354.63742442 .00000136 00000-0 78335-4 0 06601 2 25397 098.3441 337.3883 0002172 086.5209 273.6212 14.23247495698483 NO-44 1 26931U 01043C 11354.61405815 -.00000096 00000-0 -50880-5 0 09266 2 26931 067.0503 223.1349 0005034 274.8264 085.2264 14.29739002533570 SO-50 1 27607U 02058C 11354.50503722 .00001001 00000-0 17175-3 0 06437 2 27607 064.5571 121.3824 0084132 283.4731 075.7015 14.72104815483518 CO-55 1 27844U 03031E 11354.50765115 .00000335 00000-0 17489-3 0 02699 2 27844 098.7048 000.5029 0010357 024.2823 335.8827 14.20929459439373 CO-57 1 27848U 03031J 11355.67793179 .00000294 00000-0 15662-3 0 2171 2 27848 098.7118 000.9141 0010433 026.5773 333.5931 14.20694643439485 AO-51 1 28375U 04025K 11354.85272800 .00000475 00000-0 15519-3 0 1488 2 28375 098.1218 323.7328 0082684 224.3797 135.0672 14.40875073392946 CP3 1 31129U 07012N 11354.47808781 .00000961 00000-0 22936-3 0 00490 2 31129 097.8887 007.8325 0100890 322.6245 036.7976 14.52798891247883 CO-65 1 32785U 08021C 11354.67284936 .00001497 00000-0 19250-3 0 01820 2 32785 097.8253 054.7967 0013771 290.6040 069.3727 14.82538620197166 PRISM 1 33493U 09002B 11355.71078090 .00003746 00000-0 46752-3 0 2574 2 33493 098.1461 127.4440 0019778 153.1349 207.0890 14.82888468157290 SOHLA-1 1 33496U 09002E 11354.93687591 .00000488 00000-0 90061-4 0 06120 2 33496 098.0938 103.0484 0005679 247.8349 112.2253 14.69814529155914 TISAT-1 1 36799U 10035E 11355.71399797 .00002087 00000-0 27379-3 0 5275 2 36799 098.0824 065.6815 0015820 034.6310 325.5933 14.81318894 78069 STUDSAT 1 36801U 10035G 11354.91956013 .00005787 00000-0 72455-3 0 03172 2 36801 098.0865 064.9694 0013486 024.0965 336.0864 14.82589192077948 OOREOS 1 37224U 10062C 11330.25217324 .00002151 00000-0 30897-3 0 00339 2 37224 071.9741 041.3371 0020052 337.4654 022.5620 14.77385090005948 FO-69 1 37227U 0 11355.50289190 .00000786 00000-0 11943-3 0 00555 2 37227 071.9705 346.1865 0018743 290.9933 068.9239 14.76857686009715 FO-70 1 37380U 0 11355.54659957 .00000774 00000-0 11837-3 0 00583 2 37380 071.9738 346.4259 0019308 287.8571 072.0507 14.76615138009619 NOAA-10 1 16969U 86073A 11355.63927707 .00000054 00000-0 39757-4 0 7522 2 16969 098.6015 022.7013 0012892 039.7883 320.4238 14.27513487314391 NOAA-11 1 19531U 88089A 11355.31134692 -.00000079 00000-0 -18496-4 0 7523 2 19531 098.7435 079.1647 0011714 017.9306 342.2287 14.14945186199214 NOAA-12 1 21263U 91032A 11355.69117249 .00000069 00000-0 47848-4 0 2424 2 21263 098.7416 013.0847 0014144 003.4858 356.6418 14.25466195 71123 MET-3/5 1 21655U 91056A 11354.56041925 .00000051 00000-0 10000-3 0 02911 2 21655 082.5590 279.0863 0014633 054.1586 306.0889 13.17032106978250 MET-2/21 1 22782U 93055A 11354.60596924 -.00000055 00000-0 -62514-4 0 02894 2 22782 082.5460 174.9826 0021295 298.2124 061.6880 13.83670722924331 OKEAN-4 1 23317U 94066A 11355.91372958 .00000974 00000-0 11528-3 0 7550 2 23317 082.5403 197.8090 0020370 217.3095 142.6707 14.83470829928375 NOAA-14 1 23455U 94089A 11355.71506468 .00000090 00000-0 70529-4 0 7232 2 23455 098.8410 076.3806 0010093 104.8003 255.4289 14.13864806875578 NOAA-15 1 25338U 98030A 11355.43471990 .00000197 00000-0 10294-3 0 721 2 25338 098.6744 339.2012 0009841 268.9859 091.0217 14.25008576707394 RESURS 1 25394U 98043A 11354.98010929 .00000065 00000-0 45817-4 0 09955 2 25394 098.3072 347.7884 0002320 053.7189 306.4205 14.24264642698890 FENGYUN1 1 25730U 99025A 11354.95240837 .00000304 00000-0 19953-3 0 04974 2 25730 098.8316 312.2372 0021324 154.0014 206.2231 14.09120570649364 OKEAN-0 1 25860U 99039A 11354.99458270 .00000716 00000-0 11642-3 0 05165 2 25860 097.9105 316.5948 0001824 079.8177 280.3237 14.74022566668174 NOAA-16 1 26536U 00055A 11355.41723911 .00000008 00000-0 29115-4 0 5553 2 26536 099.1208 029.5738 0010067 224.0233 136.0127 14.12686968579795 NOAA-17 1 27453U 02032A 11355.46034938 .00000225 00000-0 11495-3 0 5358 2 27453 098.3585 026.3582 0011123 324.8036 035.2412 14.24371720493319 NOAA-18 1 28654U 05018A 11355.44859270 .00000079 00000-0 68413-4 0 109 2 28654 099.0224 307.2907 0013684 299.5922 060.3889 14.11576796339344 NOAA-19 1 33591U 09005A 11355.70009702 -.00000016 00000-0 15587-4 0 2008 2 33591 098.8470 292.8724 0014221 162.7835 197.3821 14.11265935147836 HUBBLE 1 20580U 90037B 11355.08397458 .00001881 00000-0 12752-3 0 9104 2 20580 028.4703 235.1646 0003202 306.8411 053.1934 15.02015669987776 ISS 1 25544U 98067A 11355.91136867 .00021672 00000-0 28116-3 0 6701 2 25544 051.6441 296.4760 0024445 190.7247 276.2995 15.58432251750217 CO-58 1 28895U 05043F 11354.31430120 .00000650 00000-0 14331-3 0 00539 2 28895 097.9392 223.2326 0017645 000.3419 359.7813 14.60398879327400 FALCON 1 30776U 07006E 11354.96636313 .00005472 00000-0 36832-3 0 02487 2 30776 035.4340 290.3659 0003051 293.1361 066.8993 15.06201105263207 MAST 1 31126U 07012K 11355.58319030 .00000727 00000-0 17341-3 0 3389 2 31126 097.8825 012.0934 0093553 307.9261 051.3497 14.53972922248317 CAPE1 1 31130U 07012P 11354.50126810 .00001052 00000-0 25054-3 0 03514 2 31130 097.8871 007.5975 0101614 323.2305 036.1958 14.52685504247683 COMPASS 1 32787U 08021E 11355.75062495 .00002853 00000-0 35456-3 0 1751 2 32787 097.8282 055.9080 0014407 286.2500 073.7133 14.83285100197352 AAUSAT2 1 32788U 08021F 11354.81105155 .00002770 00000-0 34234-3 0 1660 2 32788 097.8286 055.2801 0014056 291.6651 068.3071 14.83536305197232 DO-64 1 32789U 08021G 11354.73918536 .00004109 00000-0 49274-3 0 1812 2 32789 097.8369 056.6294 0014091 286.7139 073.2585 14.84532947197246 CO-66 1 32791U 08021J 11354.66550122 .00001780 00000-0 22610-3 0 01705 2 32791 097.8285 054.7087 0014758 289.3402 070.6248 14.82821053197139 RS-30 1 32953U 08025A 11355.68625006 .00000010 00000-0 00000 0 0 3629 2 32953 082.5024 046.1439 0018239 341.4856 018.5564 12.43018812162385 TACSAT-3 1 35001U 09028A 11354.80275968 .00071683 00000-0 71321-3 0 08055 2 35001 040.4510 110.8519 0005343 123.7179 236.4155 15.64695073146121 PHARMSAT 1 35002U 09028B 11354.70385857 .00044842 00000-0 53749-3 0 07436 2 35002 040.4671 112.2231 0010284 174.6551 185.4392 15.60025206146101 HAWKSAT1 1 35003U 09028C 11276.79285837 .02274821 58283-2 19360-2 0 8114 2 35003 040.4398 174.3672 0011414 274.3918 085.3844 16.13812532134570 CP6 1 35004U 09028D 11247.64656856 .16152067 73217-5 10011-2 0 7842 2 35004 040.4403 342.9642 0002956 038.0069 322.2231 16.41039951130139 METEOR-M 1 35865U 09049A 11355.76054749 -.00000005 00000-0 17409-4 0 9997 2 35865 098.6817 048.2087 0001850 195.5927 164.5200 14.21851593117241 RS-38 1 35869U 09049E 11355.80701128 .00000068 00000-0 50517-4 0 9889 2 35869 098.6785 048.2753 0004161 200.2005 159.8999 14.22045376117267 ARISSAT1 1 37772U 98067CK 11355.85930899 .00567239 15278-3 10765-2 0 4288 2 37772 051.6314 284.7136 0009670 157.7128 302.7514 16.00032166 21945 SRMSAT 1 37839U 11058B 11354.39435533 .00000619 00000-0 19019-3 0 00523 2 37839 019.9618 007.4203 0019502 044.5352 315.6550 14.12009553009804 JUGNU 1 37841U 11058D 11354.41704542 .00000264 00000-0 00000-0 0 00510 2 37841 019.9719 008.6329 0011802 014.6250 345.4559 14.10100854009793 RAX-2 1 37853U 11061D 11354.86581050 .00002759 00000-0 23202-3 0 00583 2 37853 101.7063 308.7379 0253178 141.5290 220.4273 14.78239286007895 AUBIESAT 1 37854U 11061E 11354.85859577 .00002961 00000-0 24467-3 0 00595 2 37854 101.7118 308.7729 0254947 141.0698 220.9175 14.78468453007872 HRBE 1 37855U 11061F 11354.85978120 .00002921 00000-0 24184-3 0 00628 2 37855 101.7087 308.7727 0255026 141.0441 220.9439 14.78415878007877 /EX
participants (1)
-
Ray Hoad